This demonstration page uses our WeatherBlox Daily Observations layout. Learn more.

Left ArrowRight Arrow

44.8408, -93.29828

Hourly Observations for September 23, 2019

Temp ( °F °C ) Dew Point ( °F °C ) Humidity (%) Winds ( mph kmh ) Pressure ( in mb ) Visibility ( mi km ) Precip ( " mm )
12:53 am 00:53 Partly Cloudy 58 14.4 53 11.7 84 84 WSW 5 7 29.93 1013 10 16 0.00 0.00
1:53 am 01:53 Partly Cloudy 56 13.3 52 11.1 87 87 SW 5 7 29.93 1013 10 16 0.00 0.00
2:53 am 02:53 Mostly Cloudy 56 13.3 52 11.1 87 87 WSW 6 9 29.93 1013 10 16 0.00 0.00
3:53 am 03:53 Mostly Clear 56 13.3 51 10.6 84 84 WSW 6 9 29.93 1014 10 16 0.00 0.00
4:53 am 04:53 Mostly Cloudy 56 13.3 51 10.6 84 84 Calm 29.94 1014 10 16 0.00 0.00
5:53 am 05:53 Clear 54 12.2 50 10 87 87 SW 6 9 29.95 1014 10 16 0.00 0.00
6:53 am 06:53 Mostly Clear 54 12.2 50 10 87 87 SW 5 7 29.96 1015 10 16 0.00 0.00
7:53 am 07:53 Mostly Sunny 55 12.8 50 10 83 83 SW 5 7 29.98 1015 10 16 0.00 0.00
8:53 am 08:53 Mostly Sunny 58 14.4 50 10 75 75 WSW 6 9 29.99 1016 10 16 0.00 0.00
9:53 am 09:53 Mostly Sunny 62 16.7 51 10.6 67 67 SW 7 11 30.00 1016 10 16 0.00 0.00
10:53 am 10:53 Mostly Sunny 66 18.9 53 11.7 63 63 VRB 5 7 30.01 1016 10 16 0.00 0.00
11:53 am 11:53 Sunny 71 21.7 51 10.6 49 49 W 8 13 30.00 1016 10 16 0.00 0.00
12:53 pm 12:53 Sunny 73 22.8 51 10.6 46 46 W 10 17 29.99 1016 10 16 0.00 0.00
1:53 pm 13:53 Sunny 75 23.9 51 10.6 43 43 WNW 10 17 29.98 1015 10 16 0.00 0.00
2:53 pm 14:53 Sunny 75 23.9 47 8.3 37 37 WSW 13 20 29.96 1015 10 16 0.00 0.00
3:53 pm 15:53 Mostly Sunny 75 23.9 46 7.8 36 36 W 13 20 29.95 1014 10 16 0.00 0.00
4:53 pm 16:53 Sunny 75 23.9 49 9.4 40 40 WNW 8 13 29.94 1014 10 16 0.00 0.00
5:53 pm 17:53 Sunny 75 23.9 46 7.8 36 36 WSW 7 11 29.93 1014 10 16 0.00 0.00
6:53 pm 18:53 Sunny 73 22.8 47 8.3 40 40 SW 6 9 29.93 1014 10 16 0.00 0.00
7:53 pm 19:53 Clear 71 21.7 49 9.4 46 46 SSW 5 7 29.94 1014 10 16 0.00 0.00
8:53 pm 20:53 Clear 69 20.6 50 10 51 51 S 5 7 29.93 1014 10 16 0.00 0.00
9:53 pm 21:53 Clear 64 17.8 51 10.6 63 63 SE 5 7 29.93 1014 10 16 0.00 0.00
10:53 pm 22:53 Clear 65 18.3 50 10 59 59 S 3 6 29.93 1013 10 16 0.00 0.00
11:53 pm 23:53 Clear 62 16.7 51 10.6 67 67 SE 5 7 29.91 1013 10 16 0.00 0.00

Powered by AerisWeather